| time (UTC) | temp F | wind direction | speed MPH | gust MPH | rain 1hr in | rain 24hr in | rain mn in | humidity % | barometer mb |
| 20260904191013 | 70 | 311 | 2.0 | 11.0 | 0.00 | 0.00 | 0.00 | 41 | 1011.8 |
| 20260904190614 | 70 | 335 | 3.0 | 11.0 | 0.00 | 0.00 | 0.00 | 41 | 1011.8 |
| 20260904190013 | 71 | 341 | 0.0 | 7.0 | 0.00 | 0.00 | 0.00 | 38 | 1011.8 |
| 20260904185513 | 71 | 339 | 0.0 | 3.0 | 0.00 | 0.00 | 0.00 | 39 | 1011.8 |
| 20260904185014 | 70 | 331 | 0.0 | 3.0 | 0.00 | 0.00 | 0.00 | 42 | 1011.9 |
| 20260904184520 | 69 | 326 | 0.0 | 3.0 | 0.00 | 0.00 | 0.00 | 42 | 1011.9 |
| 20260904184014 | 69 | 311 | 0.0 | 5.0 | 0.00 | 0.00 | 0.00 | 43 | 1012.0 |
| 20260904183514 | 68 | 311 | 0.0 | 5.0 | 0.00 | 0.00 | 0.00 | 45 | 1012.0 |
| 20260904183013 | 67 | 304 | 0.0 | 6.0 | 0.00 | 0.00 | 0.00 | 46 | 1012.0 |
| 20260904182514 | 67 | 304 | 0.0 | 7.0 | 0.00 | 0.00 | 0.00 | 47 | 1012.0 |
| 20260904182013 | 66 | 326 | 0.0 | 8.0 | 0.00 | 0.00 | 0.00 | 50 | 1012.0 |
| 20260904181513 | 66 | 314 | 4.0 | 8.0 | 0.00 | 0.00 | 0.00 | 50 | 1012.0 |
| 20260904181017 | 66 | 232 | 0.0 | 6.0 | 0.00 | 0.00 | 0.00 | 52 | 1012.0 |
| 20260904180512 | 67 | 218 | 0.0 | 4.0 | 0.00 | 0.00 | 0.00 | 51 | 1012.0 |
| 20260904180014 | 66 | 218 | 0.0 | 0.0 | 0.00 | 0.00 | 0.00 | 53 | 1012.0 |
| 20260904175514 | 66 | 218 | 0.0 | 6.0 | 0.00 | 0.00 | 0.00 | 56 | 1012.0 |
| 20260904175014 | 65 | 218 | 0.0 | 6.0 | 0.00 | 0.00 | 0.00 | 55 | 1012.0 |
| 20260904174516 | 66 | 203 | 0.0 | 0.0 | 0.00 | 0.00 | 0.00 | 56 | 1012.0 |
| 20260904174013 | 65 | 201 | 0.0 | 0.0 | 0.00 | 0.00 | 0.00 | 58 | 1012.0 |
| 20260904173514 | 65 | 198 | 0.0 | 0.0 | 0.00 | 0.00 | 0.00 | 60 | 1012.0 |
| 20260904173014 | 65 | 184 | 0.0 | 0.0 | 0.00 | 0.00 | 0.00 | 60 | 1011.9 |
| 20260904172513 | 64 | 184 | 0.0 | 0.0 | 0.00 | 0.00 | 0.00 | 62 | 1011.9 |
| 20260904172013 | 64 | 184 | 0.0 | 0.0 | 0.00 | 0.00 | 0.00 | 63 | 1011.9 |
| 20260904171514 | 63 | 184 | 0.0 | 0.0 | 0.00 | 0.00 | 0.00 | 65 | 1011.8 |
| 20260904171014 | 63 | 184 | 0.0 | 4.0 | 0.00 | 0.00 | 0.00 | 67 | 1011.9 |
| 20260904170516 | 63 | 184 | 1.0 | 6.0 | 0.00 | 0.00 | 0.00 | 67 | 1011.9 |
| 20260904170017 | 63 | 184 | 3.0 | 6.0 | 0.00 | 0.00 | 0.00 | 68 | 1011.8 |
| 20260904165514 | 62 | 184 | 0.0 | 0.0 | 0.00 | 0.00 | 0.00 | 69 | 1011.8 |
| 20260904165015 | 62 | 184 | 0.0 | 5.0 | 0.00 | 0.00 | 0.00 | 70 | 1011.8 |
| 20260904164513 | 61 | 184 | 1.0 | 6.0 | 0.00 | 0.00 | 0.00 | 72 | 1011.8 |
| 20260904164014 | 61 | 184 | 2.0 | 9.0 | 0.00 | 0.00 | 0.00 | 72 | 1011.8 |
| 20260904163513 | 61 | 185 | 5.0 | 9.0 | 0.00 | 0.00 | 0.00 | 73 | 1011.8 |
| 20260904163013 | 60 | 305 | 0.0 | 0.0 | 0.00 | 0.00 | 0.00 | 74 | 1011.8 |
| 20260904162517 | 60 | 308 | 0.0 | 0.0 | 0.00 | 0.00 | 0.00 | 76 | 1011.7 |
| 20260904162014 | 60 | 308 | 0.0 | 0.0 | 0.00 | 0.00 | 0.00 | 76 | 1011.7 |
| 20260904161515 | 60 | 308 | 0.0 | 7.0 | 0.00 | 0.00 | 0.00 | 77 | 1011.6 |
| 20260904161013 | 60 | 319 | 0.0 | 6.0 | 0.00 | 0.00 | 0.00 | 78 | 1011.6 |
| 20260904160519 | 60 | 354 | 0.0 | 0.0 | 0.00 | 0.00 | 0.00 | 78 | 1011.6 |
| 20260904160016 | 59 | 354 | 0.0 | 0.0 | 0.00 | 0.00 | 0.00 | 80 | 1011.6 |
| 20260904155514 | 59 | 350 | 0.0 | 0.0 | 0.00 | 0.00 | 0.00 | 80 | 1011.7 |
| 20260904155014 | 59 | 359 | 0.0 | 1.0 | 0.00 | 0.00 | 0.00 | 80 | 1011.6 |
| 20260904154513 | 59 | 359 | 0.0 | 1.0 | 0.00 | 0.00 | 0.00 | 80 | 1011.6 |
| 20260904154014 | 59 | 280 | 0.0 | 0.0 | 0.00 | 0.00 | 0.00 | 80 | 1011.7 |
| 20260904153515 | 59 | 280 | 0.0 | 0.0 | 0.00 | 0.00 | 0.00 | 80 | 1011.5 |
| 20260904153102 | 59 | 280 | 0.0 | 0.0 | 0.00 | 0.00 | 0.00 | 80 | 1011.5 |
| 20260904143513 | 56 | 280 | 0.0 | 0.0 | 0.00 | 0.00 | 0.00 | 83 | 1011.2 |
| 20260904143020 | 55 | 280 | 0.0 | 0.0 | 0.00 | 0.00 | 0.00 | 84 | 1011.2 |
| 20260904142014 | 55 | 280 | 0.0 | 0.0 | 0.00 | 0.00 | 0.00 | 84 | 1011.1 |
| 20260904141515 | 55 | 280 | 0.0 | 0.0 | 0.00 | 0.00 | 0.00 | 84 | 1011.1 |
| 20260904134015 | 52 | 280 | 0.0 | 0.0 | 0.00 | 0.00 | 0.00 | 86 | 1010.8 |
| 20260904133513 | 52 | 280 | 0.0 | 0.0 | 0.00 | 0.00 | 0.00 | 86 | 1010.7 |
| 20260904133014 | 52 | 280 | 0.0 | 0.0 | 0.00 | 0.00 | 0.00 | 87 | 1010.7 |
| 20260904132520 | 52 | 280 | 0.0 | 0.0 | 0.00 | 0.00 | 0.00 | 87 | 1010.7 |
| 20260904053015 | 56 | 288 | 0.0 | 0.0 | 0.00 | 0.00 | 0.00 | 78 | 1010.1 |
| 20260904052514 | 56 | 288 | 0.0 | 0.0 | 0.00 | 0.00 | 0.00 | 78 | 1010.1 |
| 20260904052017 | 56 | 288 | 0.0 | 0.0 | 0.00 | 0.00 | 0.00 | 79 | 1010.1 |
| 20260904051615 | 56 | 288 | 0.0 | 0.0 | 0.00 | 0.00 | 0.00 | 78 | 1010.1 |
| 20260904051014 | 56 | 288 | 0.0 | 0.0 | 0.00 | 0.00 | 0.00 | 78 | 1010.1 |
| 20260904050514 | 56 | 288 | 0.0 | 0.0 | 0.00 | 0.00 | 0.00 | 74 | 1010.2 |
| 20260904050015 | 56 | 288 | 0.0 | 0.0 | 0.00 | 0.00 | 0.00 | 73 | 1010.2 |
| 20260904045518 | 57 | 288 | 0.0 | 0.0 | 0.00 | 0.00 | 0.00 | 72 | 1010.2 |
| 20260904045014 | 57 | 288 | 0.0 | 0.0 | 0.00 | 0.00 | 0.00 | 71 | 1010.2 |
| 20260904044529 | 57 | 288 | 0.0 | 0.0 | 0.00 | 0.00 | 0.00 | 73 | 1010.1 |
| 20260904044014 | 57 | 288 | 0.0 | 0.0 | 0.00 | 0.00 | 0.00 | 71 | 1010.1 |
| 20260904043514 | 58 | 288 | 0.0 | 0.0 | 0.00 | 0.00 | 0.00 | 71 | 1010.1 |
| 20260904043015 | 58 | 288 | 0.0 | 0.0 | 0.00 | 0.00 | 0.00 | 69 | 1010.1 |
| 20260904042514 | 58 | 288 | 0.0 | 0.0 | 0.00 | 0.00 | 0.00 | 69 | 1010.0 |
| 20260904042014 | 58 | 288 | 0.0 | 0.0 | 0.00 | 0.00 | 0.00 | 69 | 1010.0 |
| 20260904041516 | 58 | 288 | 0.0 | 0.0 | 0.00 | 0.00 | 0.00 | 70 | 1009.9 |
| 20260904041016 | 58 | 288 | 0.0 | 0.0 | 0.00 | 0.00 | 0.00 | 70 | 1010.0 |
| 20260904040514 | 59 | 288 | 0.0 | 0.0 | 0.00 | 0.00 | 0.00 | 69 | 1010.0 |
| 20260904040015 | 59 | 288 | 0.0 | 0.0 | 0.00 | 0.00 | 0.00 | 69 | 1010.0 |
| 20260904035615 | 59 | 288 | 0.0 | 0.0 | 0.00 | 0.00 | 0.00 | 70 | 1009.9 |
| 20260904035014 | 59 | 288 | 0.0 | 0.0 | 0.00 | 0.00 | 0.00 | 69 | 1010.0 |
| 20260904034515 | 59 | 288 | 0.0 | 0.0 | 0.00 | 0.00 | 0.00 | 70 | 1009.9 |
| 20260904034014 | 59 | 288 | 0.0 | 0.0 | 0.00 | 0.00 | 0.00 | 70 | 1009.7 |
| 20260904033515 | 60 | 288 | 0.0 | 0.0 | 0.00 | 0.00 | 0.00 | 70 | 1009.7 |
| 20260904033015 | 60 | 288 | 0.0 | 4.0 | 0.00 | 0.00 | 0.00 | 70 | 1009.7 |
| 20260904032514 | 60 | 288 | 0.0 | 9.0 | 0.00 | 0.00 | 0.00 | 70 | 1009.6 |
| 20260904032014 | 60 | 287 | 2.0 | 9.0 | 0.00 | 0.00 | 0.00 | 69 | 1009.4 |
| 20260904031515 | 61 | 325 | 1.0 | 7.0 | 0.00 | 0.00 | 0.00 | 68 | 1009.4 |
| 20260904031015 | 61 | 322 | 2.0 | 10.0 | 0.00 | 0.00 | 0.00 | 67 | 1009.3 |
| 20260904030515 | 61 | 326 | 2.0 | 10.0 | 0.00 | 0.00 | 0.00 | 66 | 1009.1 |
| 20260904030014 | 62 | 326 | 1.0 | 7.0 | 0.00 | 0.00 | 0.00 | 65 | 1009.1 |
| 20260904025514 | 62 | 309 | 2.0 | 8.0 | 0.00 | 0.00 | 0.00 | 65 | 1009.1 |
| 20260904025015 | 62 | 325 | 2.0 | 11.0 | 0.00 | 0.00 | 0.00 | 64 | 1009.0 |
| 20260904024515 | 63 | 326 | 6.0 | 11.0 | 0.00 | 0.00 | 0.00 | 63 | 1009.1 |
| 20260904024015 | 63 | 316 | 2.0 | 6.0 | 0.00 | 0.00 | 0.00 | 60 | 1009.1 |
| 20260904023514 | 64 | 323 | 0.0 | 4.0 | 0.00 | 0.00 | 0.00 | 58 | 1009.1 |
| 20260904023015 | 64 | 324 | 0.0 | 3.0 | 0.00 | 0.00 | 0.00 | 57 | 1009.0 |
| 20260904022516 | 65 | 324 | 0.0 | 7.0 | 0.00 | 0.00 | 0.00 | 56 | 1009.1 |
| 20260904022015 | 65 | 324 | 1.0 | 7.0 | 0.00 | 0.00 | 0.00 | 56 | 1009.2 |
| 20260904021521 | 65 | 324 | 0.0 | 8.0 | 0.00 | 0.00 | 0.00 | 55 | 1009.2 |
| 20260904021014 | 66 | 323 | 1.0 | 11.0 | 0.00 | 0.00 | 0.00 | 54 | 1009.3 |
| 20260904020516 | 66 | 313 | 3.0 | 11.0 | 0.00 | 0.00 | 0.00 | 52 | 1009.2 |
| 20260904020015 | 67 | 324 | 4.0 | 10.0 | 0.00 | 0.00 | 0.00 | 48 | 1009.2 |
| 20260904015516 | 68 | 311 | 2.0 | 8.0 | 0.00 | 0.00 | 0.00 | 46 | 1009.2 |
| 20260904015016 | 69 | 296 | 2.0 | 7.0 | 0.00 | 0.00 | 0.00 | 44 | 1009.2 |
| 20260904014521 | 69 | 303 | 1.0 | 7.0 | 0.00 | 0.00 | 0.00 | 41 | 1009.2 |
| 20260904014015 | 70 | 297 | 1.0 | 6.0 | 0.00 | 0.00 | 0.00 | 40 | 1009.2 |
| 20260904013514 | 71 | 289 | 0.0 | 6.0 | 0.00 | 0.00 | 0.00 | 38 | 1009.2 |
| 20260904013014 | 71 | 302 | 1.0 | 5.0 | 0.00 | 0.00 | 0.00 | 37 | 1009.2 |
| 20260904012519 | 71 | 314 | 0.0 | 7.0 | 0.00 | 0.00 | 0.00 | 37 | 1009.2 |
| 20260904012018 | 71 | 332 | 1.0 | 7.0 | 0.00 | 0.00 | 0.00 | 37 | 1009.2 |
| 20260904011527 | 71 | 328 | 1.0 | 7.0 | 0.00 | 0.00 | 0.00 | 37 | 1009.2 |
| 20260904011014 | 71 | 300 | 4.0 | 10.0 | 0.00 | 0.00 | 0.00 | 36 | 1009.1 |
| 20260904010518 | 71 | 295 | 2.0 | 11.0 | 0.00 | 0.00 | 0.00 | 36 | 1009.1 |
| 20260904010029 | 72 | 293 | 2.0 | 12.0 | 0.00 | 0.00 | 0.00 | 36 | 1009.1 |
| 20260904005515 | 72 | 320 | 4.0 | 14.0 | 0.00 | 0.00 | 0.00 | 34 | 1009.1 |
| 20260904005014 | 73 | 275 | 3.0 | 14.0 | 0.00 | 0.00 | 0.00 | 33 | 1009.1 |
| 20260904004515 | 74 | 299 | 2.0 | 12.0 | 0.00 | 0.00 | 0.00 | 31 | 1009.1 |
| 20260904004015 | 74 | 312 | 5.0 | 12.0 | 0.00 | 0.00 | 0.00 | 30 | 1009.1 |
| 20260904003517 | 75 | 306 | 1.0 | 8.0 | 0.00 | 0.00 | 0.00 | 29 | 1009.0 |
| 20260904003015 | 75 | 310 | 0.0 | 16.0 | 0.00 | 0.00 | 0.00 | 29 | 1008.9 |
| 20260904002515 | 74 | 337 | 8.0 | 17.0 | 0.00 | 0.00 | 0.00 | 29 | 1008.9 |
| 20260904002015 | 76 | 316 | 8.0 | 14.0 | 0.00 | 0.00 | 0.00 | 27 | 1008.9 |
| 20260904001514 | 76 | 175 | 2.0 | 15.0 | 0.00 | 0.00 | 0.00 | 29 | 1009.1 |
| 20260904001014 | 77 | 205 | 10.0 | 15.0 | 0.00 | 0.00 | 0.00 | 28 | 1009.0 |
| 20260904000515 | 77 | 154 | 10.0 | 19.0 | 0.00 | 0.00 | 0.00 | 27 | 1009.0 |
| 20260904000015 | 77 | 163 | 6.0 | 13.0 | 0.00 | 0.00 | 0.00 | 27 | 1008.9 |
| 20260903235514 | 77 | 192 | 8.0 | 15.0 | 0.00 | 0.00 | 0.00 | 28 | 1009.0 |
| 20260903235015 | 78 | 187 | 11.0 | 15.0 | 0.00 | 0.00 | 0.00 | 27 | 1009.0 |
| 20260903234514 | 78 | 183 | 4.0 | 10.0 | 0.00 | 0.00 | 0.00 | 27 | 1009.1 |
| 20260903234015 | 80 | 184 | 2.0 | 7.0 | 0.00 | 0.00 | 0.00 | 25 | 1009.2 |
| 20260903233615 | 79 | 184 | 0.0 | 2.0 | 0.00 | 0.00 | 0.00 | 25 | 1009.1 |
| 20260903233014 | 78 | 184 | 0.0 | 9.0 | 0.00 | 0.00 | 0.00 | 25 | 1009.3 |
| 20260903232515 | 78 | 182 | 0.0 | 12.0 | 0.00 | 0.00 | 0.00 | 26 | 1009.4 |
| 20260903232015 | 78 | 195 | 8.0 | 12.0 | 0.00 | 0.00 | 0.00 | 25 | 1009.5 |
| 20260903231516 | 79 | 160 | 0.0 | 5.0 | 0.00 | 0.00 | 0.00 | 25 | 1009.5 |
| 20260903231016 | 79 | 163 | 0.0 | 8.0 | 0.00 | 0.00 | 0.00 | 25 | 1009.6 |
| 20260903230515 | 78 | 163 | 3.0 | 11.0 | 0.00 | 0.00 | 0.00 | 25 | 1009.5 |
| 20260903230018 | 78 | 143 | 2.0 | 11.0 | 0.00 | 0.00 | 0.00 | 25 | 1009.7 |
| 20260903225515 | 79 | 192 | 1.0 | 11.0 | 0.00 | 0.00 | 0.00 | 24 | 1009.8 |
| 20260903225015 | 79 | 191 | 0.0 | 12.0 | 0.00 | 0.00 | 0.00 | 25 | 1009.8 |
| 20260903224522 | 79 | 191 | 0.0 | 12.0 | 0.00 | 0.00 | 0.00 | 25 | 1009.9 |
| 20260903224017 | 78 | 154 | 3.0 | 10.0 | 0.00 | 0.00 | 0.00 | 26 | 1010.0 |
| 20260903223515 | 77 | 177 | 4.0 | 12.0 | 0.00 | 0.00 | 0.00 | 26 | 1010.0 |
| 20260903223015 | 77 | 156 | 5.0 | 11.0 | 0.00 | 0.00 | 0.00 | 26 | 1010.0 |
| 20260903222515 | 78 | 133 | 8.0 | 14.0 | 0.00 | 0.00 | 0.00 | 26 | 1010.1 |
| 20260903222018 | 78 | 151 | 8.0 | 14.0 | 0.00 | 0.00 | 0.00 | 25 | 1010.1 |
| 20260903221515 | 79 | 187 | 0.0 | 11.0 | 0.00 | 0.00 | 0.00 | 24 | 1010.1 |
| 20260903221115 | 79 | 187 | 4.0 | 11.0 | 0.00 | 0.00 | 0.00 | 25 | 1010.2 |
| 20260903220516 | 79 | 178 | 3.0 | 11.0 | 0.00 | 0.00 | 0.00 | 25 | 1010.3 |
| 20260903220020 | 78 | 195 | 0.0 | 6.0 | 0.00 | 0.00 | 0.00 | 26 | 1010.4 |
| 20260903215515 | 78 | 177 | 0.0 | 12.0 | 0.00 | 0.00 | 0.00 | 25 | 1010.5 |
| 20260903215016 | 78 | 165 | 6.0 | 12.0 | 0.00 | 0.00 | 0.00 | 25 | 1010.6 |
| 20260903214515 | 78 | 212 | 0.0 | 15.0 | 0.00 | 0.00 | 0.00 | 26 | 1010.6 |
| 20260903214017 | 77 | 181 | 6.0 | 15.0 | 0.00 | 0.00 | 0.00 | 26 | 1010.6 |
| 20260903213516 | 78 | 180 | 5.0 | 12.0 | 0.00 | 0.00 | 0.00 | 26 | 1010.6 |
| 20260903213018 | 78 | 166 | 4.0 | 10.0 | 0.00 | 0.00 | 0.00 | 26 | 1010.6 |
| 20260903212517 | 76 | 124 | 0.0 | 14.0 | 0.00 | 0.00 | 0.00 | 28 | 1010.6 |
| 20260903212015 | 76 | 170 | 8.0 | 14.0 | 0.00 | 0.00 | 0.00 | 28 | 1010.7 |
| 20260903211538 | 76 | 160 | 1.0 | 14.0 | 0.00 | 0.00 | 0.00 | 27 | 1010.7 |
| 20260903211015 | 76 | 163 | 3.0 | 14.0 | 0.00 | 0.00 | 0.00 | 27 | 1010.8 |
| 20260903210515 | 76 | 163 | 6.0 | 13.0 | 0.00 | 0.00 | 0.00 | 27 | 1010.8 |
| 20260903210121 | 76 | 163 | 0.0 | 12.0 | 0.00 | 0.00 | 0.00 | 28 | 1010.8 |
| 20260903205515 | 76 | 166 | 9.0 | 12.0 | 0.00 | 0.00 | 0.00 | 27 | 1010.9 |
| 20260903205014 | 75 | 125 | 0.0 | 13.0 | 0.00 | 0.00 | 0.00 | 29 | 1010.9 |
| 20260903204515 | 75 | 189 | 7.0 | 13.0 | 0.00 | 0.00 | 0.00 | 29 | 1011.1 |
| 20260903204018 | 75 | 171 | 6.0 | 15.0 | 0.00 | 0.00 | 0.00 | 30 | 1011.0 |
| 20260903203514 | 75 | 160 | 9.0 | 15.0 | 0.00 | 0.00 | 0.00 | 29 | 1011.0 |
| 20260903203015 | 76 | 162 | 3.0 | 14.0 | 0.00 | 0.00 | 0.00 | 29 | 1011.0 |
| 20260903202515 | 75 | 123 | 3.0 | 14.0 | 0.00 | 0.00 | 0.00 | 30 | 1011.0 |
| 20260903202015 | 75 | 181 | 6.0 | 16.0 | 0.00 | 0.00 | 0.00 | 30 | 1011.1 |
| 20260903201514 | 75 | 161 | 3.0 | 16.0 | 0.00 | 0.00 | 0.00 | 31 | 1011.1 |
| 20260903201016 | 75 | 204 | 11.0 | 16.0 | 0.00 | 0.00 | 0.00 | 31 | 1011.2 |
| 20260903200515 | 75 | 164 | 6.0 | 14.0 | 0.00 | 0.00 | 0.00 | 31 | 1011.2 |
| 20260903200015 | 75 | 181 | 8.0 | 14.0 | 0.00 | 0.00 | 0.00 | 31 | 1011.2 |
| 20260903195514 | 76 | 181 | 5.0 | 15.0 | 0.00 | 0.00 | 0.00 | 30 | 1011.4 |
| 20260903195016 | 75 | 188 | 2.0 | 13.0 | 0.00 | 0.00 | 0.00 | 31 | 1011.3 |
| 20260903194517 | 74 | 158 | 6.0 | 13.0 | 0.00 | 0.00 | 0.00 | 30 | 1011.5 |
| 20260903194014 | 75 | 163 | 2.0 | 11.0 | 0.00 | 0.00 | 0.00 | 30 | 1011.6 |
| 20260903193515 | 75 | 155 | 6.0 | 11.0 | 0.00 | 0.00 | 0.00 | 29 | 1011.6 |
| 20260903193015 | 74 | 185 | 4.0 | 10.0 | 0.00 | 0.00 | 0.00 | 29 | 1011.7 |
| 20260903192515 | 73 | 139 | 2.0 | 11.0 | 0.00 | 0.00 | 0.00 | 30 | 1011.7 |
| 20260903192015 | 74 | 154 | 5.0 | 12.0 | 0.00 | 0.00 | 0.00 | 30 | 1011.9 |
| 20260903191518 | 74 | 193 | 6.0 | 13.0 | 0.00 | 0.00 | 0.00 | 29 | 1011.9 |